sat.trackr.live / text

‹ back to catalog

STARLINK-36389

NORAD 67806 · 2026-032K

PAYLOAD ACTIVE UNKNOWN

§ Identity

Operator
Country
US
Launch date
2026-02-15
Launch site
AFWTR
Launch vehicle
Mass (kg)
RCS (m²)

Purposes: comms

External: N2YO · Heavens-Above · Gunter

§ Orbital elements

Epoch: 2026-05-25T01:28:25.345344Z

Period
93.91 min
Inclination
97.2857°
Eccentricity
0.0001728
Mean motion
15.33450260 rev/d
Perigee alt
464.3 km
Apogee alt
466.7 km
Semi-major
6,843.7 km
B*
4.9924e-4
RAAN
333.1370°
Arg perigee
94.0261°
Mean anomaly
266.1179°
Rev number
1,666

§ Raw data

STARLINK-363891 67806U 26032K   26145.06140446  .00016080  00000+0  49924-3 0  99982 67806  97.2857 333.1370 0001728  94.0261 266.1179 15.33450260 16667

JSON: /api/v1/satellites/67806 · /tle

For live sub-satellite position, see the globe view (requires WebGL).

§ Visibility from observer

Set your observer location to see the next 7 days of passes ≥ 10°. The values pass through the URL so the page stays shareable.

No JS? Fill the form by hand. The geolocation button needs JavaScript.